AFL1644 UUEE-UIII

Flight info

Callsign AFL1644
Flight time N/A
Altitude 35000
Route RILPO3H RILPO T753 RANTO N869 SONAT P865 ADANU N604 PIGUR T580 LITUN N869 KUMOD R497 RO A817 RUSAM G490 NH NH5B
Aircraft A21N/M-SDE2E3FGHIRWXY/LB1

Departure

Time N/A
Airport Sheremetyevo International Airport (UUEE)

Arrival

Time 2026-04-30 21:43
Airport Irkutsk International Airport (UIII)
Time Latitude Longitude Altitude Speed Heading
2026-04-30 17:39 59.02352 47.92255 35170 ft 470 kts 68°
2026-04-30 17:42 59.14716 48.51144 35172 ft 473 kts 69°
2026-04-30 17:43 59.20547 48.81065 35171 ft 471 kts 79°
2026-04-30 17:44 59.23933 49.18891 35173 ft 472 kts 83°
2026-04-30 17:47 59.28559 49.75863 35152 ft 473 kts 84°
2026-04-30 17:48 59.31864 50.18515 35160 ft 475 kts 84°
2026-04-30 17:50 59.35646 50.69812 35171 ft 477 kts 85°
2026-04-30 17:52 59.38280 51.08475 35166 ft 478 kts 85°
2026-04-30 17:54 59.41988 51.66731 35155 ft 478 kts 86°
2026-04-30 17:56 59.45079 52.18700 35164 ft 480 kts 86°
2026-04-30 17:58 59.47287 52.57876 35172 ft 482 kts 88°
2026-04-30 18:00 59.50057 53.10373 35170 ft 482 kts 88°
2026-04-30 18:01 59.51351 53.43307 35170 ft 483 kts 90°
2026-04-30 18:02 59.52601 53.82896 35172 ft 485 kts 91°
2026-04-30 18:04 59.53767 54.22739 35165 ft 486 kts 91°
2026-04-30 18:06 59.55135 54.75968 35142 ft 486 kts 92°
2026-04-30 18:08 59.56157 55.22558 35153 ft 486 kts 93°
2026-04-30 18:10 59.57121 55.75796 35152 ft 487 kts 93°
2026-04-30 18:11 59.57789 56.22522 35137 ft 487 kts 94°
2026-04-30 18:13 59.58164 56.55954 35148 ft 488 kts 94°
2026-04-30 18:14 59.58455 56.89393 35145 ft 487 kts 95°
2026-04-30 18:15 59.58691 57.29499 35155 ft 488 kts 95°
2026-04-30 18:16 59.58780 57.56295 35151 ft 488 kts 96°
2026-04-30 18:17 59.58804 57.69680 35151 ft 488 kts 96°
2026-04-30 18:18 59.58814 57.89796 35156 ft 490 kts 96°
2026-04-30 18:18 59.58815 58.03249 35155 ft 490 kts 96°
2026-04-30 18:19 59.58810 58.16712 35162 ft 490 kts 96°
2026-04-30 18:19 59.58792 58.30160 35159 ft 490 kts 96°
2026-04-30 18:20 59.58759 58.43513 35128 ft 490 kts 97°
2026-04-30 18:20 59.58711 58.56992 35157 ft 493 kts 97°
2026-04-30 18:21 59.58647 58.70553 35174 ft 495 kts 97°
2026-04-30 18:21 59.58571 58.84138 35168 ft 495 kts 97°
2026-04-30 18:22 59.58482 58.97729 35166 ft 495 kts 97°
2026-04-30 18:22 59.58784 59.11362 35168 ft 504 kts 86°
2026-04-30 18:22 59.59377 59.18181 35176 ft 505 kts 85°
2026-04-30 18:23 59.60768 59.31813 35157 ft 507 kts 83°
2026-04-30 18:23 59.62240 59.45461 35157 ft 508 kts 83°
2026-04-30 18:24 59.64404 59.65975 35160 ft 508 kts 83°
2026-04-30 18:25 59.65808 59.79663 35148 ft 508 kts 84°
2026-04-30 18:25 59.67883 60.00233 35151 ft 509 kts 84°
2026-04-30 18:26 59.69932 60.20874 35144 ft 509 kts 84°
2026-04-30 18:27 59.71951 60.41552 35145 ft 509 kts 85°
2026-04-30 18:28 59.73934 60.62231 35137 ft 509 kts 85°
2026-04-30 18:28 59.75886 60.82956 35146 ft 510 kts 85°
2026-04-30 18:29 59.78441 61.10634 35146 ft 509 kts 85°
2026-04-30 18:30 59.80928 61.38261 35146 ft 511 kts 85°
2026-04-30 18:31 59.82773 61.59209 35140 ft 511 kts 85°
2026-04-30 18:32 59.84570 61.80005 35141 ft 511 kts 85°
2026-04-30 18:33 59.86342 62.00921 35141 ft 511 kts 86°
2026-04-30 18:33 59.87887 62.19501 35143 ft 510 kts 86°
2026-04-30 18:34 59.89594 62.40412 35143 ft 509 kts 86°
2026-04-30 18:35 59.90722 62.54318 35141 ft 509 kts 86°
2026-04-30 18:35 59.91840 62.68235 35143 ft 509 kts 86°
2026-04-30 18:36 59.93496 62.89192 35144 ft 510 kts 86°
2026-04-30 18:37 59.95116 63.10156 35147 ft 510 kts 87°
2026-04-30 18:37 59.96171 63.24055 35146 ft 510 kts 87°
2026-04-30 18:38 59.97216 63.38056 35143 ft 511 kts 87°
2026-04-30 18:38 59.98250 63.52085 35146 ft 511 kts 87°
2026-04-30 18:39 59.99270 63.66146 35148 ft 511 kts 87°
2026-04-30 18:39 60.00275 63.80201 35156 ft 511 kts 88°
2026-04-30 18:40 60.01300 63.94272 35144 ft 513 kts 83°
2026-04-30 18:40 60.02865 64.08257 35152 ft 517 kts 81°
2026-04-30 18:41 60.04536 64.22247 35157 ft 518 kts 81°
2026-04-30 18:41 60.06224 64.36249 35155 ft 518 kts 81°
2026-04-30 18:42 60.07890 64.50276 35158 ft 517 kts 81°
2026-04-30 18:42 60.10349 64.71361 35153 ft 519 kts 81°
2026-04-30 18:45 60.09100 65.41355 35155 ft 504 kts 103°
2026-04-30 18:45 60.08765 65.48363 35155 ft 505 kts 103°
2026-04-30 18:46 60.08091 65.62383 35156 ft 506 kts 103°
2026-04-30 18:46 60.07405 65.76401 35161 ft 506 kts 103°
2026-04-30 18:47 60.06703 65.90415 35170 ft 506 kts 103°
2026-04-30 18:47 60.05985 66.04424 35163 ft 505 kts 103°
2026-04-30 18:48 60.05251 66.18428 35164 ft 507 kts 103°
2026-04-30 18:48 60.04497 66.32496 35167 ft 509 kts 103°
2026-04-30 18:49 60.03730 66.46578 35166 ft 509 kts 104°
2026-04-30 18:49 60.02955 66.60543 35175 ft 509 kts 104°
2026-04-30 18:50 60.02155 66.74605 35171 ft 509 kts 104°
2026-04-30 18:50 60.01336 66.88640 35160 ft 508 kts 104°
2026-04-30 18:51 60.00497 67.02722 35176 ft 511 kts 104°
2026-04-30 18:51 59.99643 67.16830 35176 ft 511 kts 104°
2026-04-30 18:52 59.98776 67.30932 35172 ft 511 kts 104°
2026-04-30 18:52 59.97893 67.45023 35165 ft 512 kts 104°
2026-04-30 18:53 59.96993 67.59122 35176 ft 512 kts 104°
2026-04-30 18:53 59.96078 67.73228 35174 ft 513 kts 104°
2026-04-30 18:54 59.95143 67.87375 35174 ft 514 kts 104°
2026-04-30 18:54 59.94195 68.01513 35176 ft 514 kts 104°
2026-04-30 18:55 59.93233 68.15644 35173 ft 514 kts 105°
2026-04-30 18:55 59.91760 68.36812 35173 ft 514 kts 105°
2026-04-30 18:56 59.90243 68.57982 35176 ft 515 kts 105°
2026-04-30 18:57 59.88692 68.79151 35178 ft 514 kts 105°
2026-04-30 18:57 59.87642 68.93212 35178 ft 513 kts 105°
2026-04-30 18:58 59.86046 69.14180 35181 ft 513 kts 105°
2026-04-30 18:59 59.84411 69.35207 35181 ft 513 kts 105°
2026-04-30 19:00 59.82182 69.63202 35187 ft 512 kts 106°
2026-04-30 19:01 59.79901 69.91146 35178 ft 512 kts 106°
2026-04-30 19:02 59.78155 70.12073 35189 ft 512 kts 106°
2026-04-30 19:03 59.75775 70.39912 35192 ft 511 kts 106°
2026-04-30 19:04 59.73340 70.67680 35184 ft 511 kts 106°
2026-04-30 19:05 59.70836 70.95496 35198 ft 513 kts 106°
2026-04-30 19:06 59.68275 71.23286 35189 ft 512 kts 107°
2026-04-30 19:06 59.66326 71.44000 35200 ft 510 kts 107°
2026-04-30 19:07 59.64346 71.64627 35201 ft 512 kts 107°
2026-04-30 19:08 59.61645 71.92246 35199 ft 511 kts 107°
2026-04-30 19:09 59.59583 72.12909 35203 ft 511 kts 107°
2026-04-30 19:09 59.58187 72.26686 35203 ft 513 kts 107°
2026-04-30 19:10 59.55349 72.54269 35202 ft 512 kts 107°
2026-04-30 19:11 59.53189 72.74867 35203 ft 511 kts 107°
2026-04-30 19:12 59.51730 72.88582 35194 ft 511 kts 107°
2026-04-30 19:12 59.50265 73.02203 35204 ft 513 kts 107°
2026-04-30 19:13 59.47269 73.29646 35203 ft 513 kts 108°
2026-04-30 19:14 59.45750 73.43343 35201 ft 513 kts 108°
2026-04-30 19:14 59.44215 73.57040 35203 ft 513 kts 108°
2026-04-30 19:15 59.42667 73.70716 35201 ft 513 kts 107°
2026-04-30 19:15 59.40319 73.91205 35206 ft 513 kts 108°
2026-04-30 19:16 59.38735 74.04849 35206 ft 513 kts 108°
2026-04-30 19:17 59.36333 74.25287 35205 ft 512 kts 108°
2026-04-30 19:17 59.33910 74.45608 35204 ft 514 kts 108°
2026-04-30 19:18 59.31643 74.66164 35202 ft 516 kts 106°
2026-04-30 19:19 59.30224 74.79930 35202 ft 516 kts 106°
2026-04-30 19:19 59.28054 75.00501 35200 ft 513 kts 106°
2026-04-30 19:20 59.26577 75.14164 35208 ft 514 kts 106°
2026-04-30 19:21 59.24326 75.34663 35204 ft 514 kts 106°
2026-04-30 19:22 59.21526 75.59753 35206 ft 514 kts 106°
2026-04-30 19:23 59.16854 76.00573 35204 ft 516 kts 106°
2026-04-30 19:24 59.14453 76.21007 35198 ft 516 kts 106°
2026-04-30 19:25 59.10398 76.54893 35206 ft 514 kts 107°
2026-04-30 19:26 59.07113 76.81933 35204 ft 514 kts 107°
2026-04-30 19:27 59.04611 77.02179 35200 ft 513 kts 107°
2026-04-30 19:28 59.02076 77.22391 35200 ft 514 kts 107°
2026-04-30 19:29 58.98655 77.49240 35190 ft 514 kts 107°
2026-04-30 19:30 58.95177 77.76053 35201 ft 512 kts 107°
2026-04-30 19:31 58.91644 78.02797 35200 ft 513 kts 107°
2026-04-30 19:31 58.88952 78.22873 35197 ft 513 kts 107°
2026-04-30 19:32 58.87143 78.36222 35194 ft 513 kts 107°
2026-04-30 19:32 58.85320 78.49558 35192 ft 513 kts 107°
2026-04-30 19:33 58.83481 78.62880 35192 ft 514 kts 107°
2026-04-30 19:33 58.81627 78.76209 35192 ft 514 kts 107°
2026-04-30 19:34 58.79760 78.89520 35192 ft 514 kts 108°
2026-04-30 19:35 58.76932 79.09476 35189 ft 514 kts 108°
2026-04-30 19:35 58.75031 79.22748 35189 ft 514 kts 108°
2026-04-30 19:36 58.73114 79.36019 35190 ft 514 kts 108°
2026-04-30 19:36 58.70227 79.55807 35184 ft 514 kts 108°
2026-04-30 19:37 58.68389 79.69104 35187 ft 515 kts 103°
2026-04-30 19:37 58.66981 79.82606 35186 ft 516 kts 102°
2026-04-30 19:38 58.65654 79.96154 35185 ft 516 kts 101°
2026-04-30 19:38 58.64330 80.09703 35177 ft 515 kts 101°
2026-04-30 19:39 58.62987 80.23208 35181 ft 515 kts 102°
2026-04-30 19:39 58.61624 80.36690 35180 ft 514 kts 102°
2026-04-30 19:40 58.60245 80.50160 35178 ft 514 kts 102°
2026-04-30 19:40 58.58852 80.63619 35180 ft 515 kts 101°
2026-04-30 19:41 58.57443 80.77078 35173 ft 515 kts 102°
2026-04-30 19:41 58.56029 80.90456 35174 ft 515 kts 102°
2026-04-30 19:42 58.54592 81.03904 35173 ft 515 kts 102°
2026-04-30 19:42 58.53141 81.17341 35173 ft 515 kts 102°
2026-04-30 19:43 58.51673 81.30786 35171 ft 516 kts 102°
2026-04-30 19:44 58.49442 81.50969 35165 ft 517 kts 102°
2026-04-30 19:44 58.47937 81.64408 35144 ft 517 kts 102°
2026-04-30 19:45 58.46421 81.77807 35161 ft 515 kts 102°
2026-04-30 19:45 58.44896 81.91160 35167 ft 514 kts 102°
2026-04-30 19:46 58.43366 82.04418 35155 ft 515 kts 102°
2026-04-30 19:46 58.41810 82.17772 35158 ft 515 kts 102°
2026-04-30 19:47 58.40241 82.31108 35152 ft 515 kts 102°
2026-04-30 19:47 58.38656 82.44443 35143 ft 515 kts 102°
2026-04-30 19:48 58.37059 82.57757 35146 ft 516 kts 102°
2026-04-30 19:48 58.35446 82.71071 35146 ft 516 kts 102°
2026-04-30 19:49 58.33817 82.84396 35142 ft 516 kts 102°
2026-04-30 19:49 58.30692 83.03999 35144 ft 517 kts 109°
2026-04-30 19:50 58.28244 83.16840 35132 ft 516 kts 110°
2026-04-30 19:50 58.25756 83.29605 35138 ft 515 kts 110°
2026-04-30 19:51 58.23266 83.42343 35137 ft 514 kts 110°
2026-04-30 19:51 58.20772 83.55068 35137 ft 514 kts 110°
2026-04-30 19:52 58.18269 83.67773 35136 ft 515 kts 110°
2026-04-30 19:52 58.15768 83.80391 35137 ft 515 kts 110°
2026-04-30 19:53 58.13238 83.93064 35136 ft 515 kts 110°
2026-04-30 19:53 58.10691 84.05745 35130 ft 516 kts 110°
2026-04-30 19:54 58.08132 84.18407 35126 ft 516 kts 110°
2026-04-30 19:54 58.05558 84.31058 35124 ft 514 kts 110°
2026-04-30 19:55 58.02985 84.43627 35135 ft 513 kts 110°
2026-04-30 19:55 58.00400 84.56176 35136 ft 513 kts 110°
2026-04-30 19:56 57.97801 84.68718 35135 ft 514 kts 110°
2026-04-30 19:56 57.95189 84.81245 35133 ft 514 kts 111°
2026-04-30 19:57 57.92562 84.93765 35140 ft 514 kts 111°
2026-04-30 19:57 57.89924 85.06260 35139 ft 514 kts 111°
2026-04-30 19:58 57.87270 85.18749 35145 ft 515 kts 111°
2026-04-30 19:58 57.84604 85.31223 35146 ft 515 kts 111°
2026-04-30 19:59 57.81926 85.43678 35141 ft 513 kts 111°
2026-04-30 20:00 57.77905 85.62240 35144 ft 512 kts 111°
2026-04-30 20:00 57.75212 85.74579 35146 ft 512 kts 111°
2026-04-30 20:01 57.71148 85.93063 35143 ft 512 kts 111°
2026-04-30 20:01 57.68443 86.05277 35142 ft 512 kts 111°
2026-04-30 20:02 57.64332 86.23699 35145 ft 512 kts 111°
2026-04-30 20:03 57.60196 86.42071 35133 ft 512 kts 111°
2026-04-30 20:03 57.57422 86.54303 35142 ft 511 kts 111°
2026-04-30 20:04 57.54644 86.66487 35146 ft 511 kts 111°
2026-04-30 20:05 57.50456 86.84722 35150 ft 511 kts 111°
2026-04-30 20:05 57.46245 87.02902 35157 ft 511 kts 111°
2026-04-30 20:06 57.43417 87.15025 35149 ft 512 kts 111°
2026-04-30 20:06 57.40574 87.27141 35148 ft 512 kts 111°
2026-04-30 20:07 57.37723 87.39227 35151 ft 512 kts 111°
2026-04-30 20:08 57.33441 87.57243 35152 ft 510 kts 111°
2026-04-30 20:08 57.30572 87.69233 35157 ft 509 kts 111°
2026-04-30 20:09 57.27693 87.81203 35153 ft 509 kts 111°
2026-04-30 20:09 57.23845 87.97100 35161 ft 509 kts 111°
2026-04-30 20:10 57.19482 88.14979 35161 ft 509 kts 111°
2026-04-30 20:11 57.15097 88.32802 35168 ft 508 kts 111°
2026-04-30 20:11 57.12167 88.44622 35166 ft 507 kts 112°
2026-04-30 20:12 57.07753 88.62299 35162 ft 506 kts 112°
2026-04-30 20:13 57.04827 88.73941 35163 ft 505 kts 112°
2026-04-30 20:13 57.01874 88.85633 35180 ft 504 kts 112°
2026-04-30 20:14 56.98917 88.97277 35167 ft 503 kts 112°
2026-04-30 20:14 56.95954 89.08884 35170 ft 503 kts 112°
2026-04-30 20:15 56.92979 89.20477 35173 ft 503 kts 112°
2026-04-30 20:15 56.89994 89.32050 35173 ft 503 kts 112°
2026-04-30 20:16 56.87000 89.43600 35173 ft 503 kts 112°
2026-04-30 20:16 56.83992 89.55141 35145 ft 503 kts 112°
2026-04-30 20:17 56.80979 89.66641 35168 ft 501 kts 112°
2026-04-30 20:17 56.77964 89.78091 35170 ft 501 kts 112°
2026-04-30 20:18 56.74938 89.89528 35171 ft 501 kts 112°
2026-04-30 20:18 56.71901 90.00943 35191 ft 500 kts 112°
2026-04-30 20:19 56.68862 90.12310 35177 ft 499 kts 112°
2026-04-30 20:19 56.65837 90.23569 35178 ft 499 kts 113°
2026-04-30 20:20 56.62783 90.34882 35189 ft 499 kts 113°
2026-04-30 20:20 56.59717 90.46182 35186 ft 499 kts 113°
2026-04-30 20:21 56.56642 90.57459 35185 ft 499 kts 113°
2026-04-30 20:21 56.53557 90.68715 35190 ft 499 kts 113°
2026-04-30 20:22 56.50461 90.79958 35193 ft 499 kts 113°
2026-04-30 20:22 56.47354 90.91185 35193 ft 499 kts 113°
2026-04-30 20:23 56.44238 91.02389 35193 ft 499 kts 113°
2026-04-30 20:23 56.41111 91.13579 35198 ft 499 kts 113°
2026-04-30 20:24 56.37973 91.24752 35199 ft 499 kts 113°
2026-04-30 20:24 56.34822 91.35919 35198 ft 500 kts 113°
2026-04-30 20:25 56.30075 91.52637 35200 ft 499 kts 113°
2026-04-30 20:26 56.25324 91.69247 35208 ft 497 kts 114°
2026-04-30 20:26 56.20577 91.85732 35212 ft 497 kts 113°
2026-04-30 20:27 56.14184 92.07750 35216 ft 497 kts 114°
2026-04-30 20:28 56.07747 92.29707 35232 ft 498 kts 114°
2026-04-30 20:30 55.99642 92.57075 35212 ft 496 kts 114°
2026-04-30 20:31 55.89892 92.89639 35238 ft 496 kts 114°
2026-04-30 20:32 55.81697 93.16667 35238 ft 496 kts 114°
2026-04-30 20:33 55.76751 93.32828 35238 ft 496 kts 114°
2026-04-30 20:34 55.71768 93.48854 35246 ft 495 kts 115°
2026-04-30 20:35 55.66697 93.64783 35254 ft 494 kts 115°
2026-04-30 20:35 55.61610 93.80678 35263 ft 494 kts 115°
2026-04-30 20:36 55.58210 93.91257 35293 ft 495 kts 115°
2026-04-30 20:37 55.53095 94.07087 35258 ft 494 kts 115°
2026-04-30 20:37 55.49673 94.17617 35271 ft 495 kts 115°
2026-04-30 20:38 55.46244 94.28124 35264 ft 495 kts 115°
2026-04-30 20:38 55.42805 94.38614 35263 ft 493 kts 115°
2026-04-30 20:39 55.37651 94.54252 35276 ft 492 kts 115°
2026-04-30 20:40 55.32479 94.69843 35274 ft 492 kts 115°
2026-04-30 20:40 55.29021 94.80215 35275 ft 492 kts 115°
2026-04-30 20:41 55.26465 94.91133 35276 ft 477 kts 95°
2026-04-30 20:41 55.25858 94.96830 35280 ft 474 kts 92°
2026-04-30 20:41 55.24968 95.08253 35279 ft 472 kts 90°
2026-04-30 20:42 55.24213 95.19591 35282 ft 472 kts 90°
2026-04-30 20:43 55.23021 95.36725 35279 ft 472 kts 90°
2026-04-30 20:43 55.22183 95.48161 35279 ft 473 kts 90°
2026-04-30 20:44 55.20902 95.65233 35281 ft 472 kts 90°
2026-04-30 20:45 55.19158 95.88008 35293 ft 472 kts 91°
2026-04-30 20:45 55.18269 95.99413 35298 ft 472 kts 91°
2026-04-30 20:46 55.16459 96.22195 35301 ft 472 kts 91°
2026-04-30 20:47 55.15074 96.39260 35309 ft 472 kts 91°
2026-04-30 20:48 55.13673 96.56236 35308 ft 473 kts 91°
2026-04-30 20:48 55.12721 96.67599 35315 ft 473 kts 91°
2026-04-30 20:49 55.11758 96.78958 35315 ft 473 kts 91°
2026-04-30 20:50 55.10294 96.95992 35315 ft 473 kts 91°
2026-04-30 20:50 55.09305 97.07336 35313 ft 473 kts 91°
2026-04-30 20:51 55.08270 97.18691 35317 ft 473 kts 92°
2026-04-30 20:51 55.06640 97.35702 35311 ft 474 kts 92°
2026-04-30 20:52 55.05543 97.47023 35304 ft 474 kts 92°
2026-04-30 20:53 55.03881 97.64025 35308 ft 474 kts 92°
2026-04-30 20:53 55.02761 97.75345 35311 ft 474 kts 93°
2026-04-30 20:54 55.01060 97.92339 35307 ft 475 kts 93°
2026-04-30 20:55 54.99333 98.09328 35312 ft 474 kts 93°
2026-04-30 20:55 54.98172 98.20613 35352 ft 473 kts 93°
2026-04-30 20:56 54.96419 98.37462 35308 ft 473 kts 94°
2026-04-30 20:57 54.94637 98.54351 35295 ft 473 kts 94°
2026-04-30 20:57 54.93630 98.63786 35293 ft 473 kts 94°
2026-04-30 20:58 54.91810 98.80662 35291 ft 473 kts 95°
2026-04-30 20:58 54.90592 98.91831 35286 ft 474 kts 95°
2026-04-30 20:59 54.88721 99.08688 35286 ft 474 kts 95°
2026-04-30 21:00 54.85994 99.31112 35287 ft 475 kts 97°
2026-04-30 21:01 54.83909 99.47949 35270 ft 476 kts 97°
2026-04-30 21:02 54.81809 99.64769 35262 ft 476 kts 97°
2026-04-30 21:02 54.80397 99.75970 35262 ft 476 kts 97°
2026-04-30 21:03 54.78976 99.87163 35265 ft 476 kts 98°
2026-04-30 21:03 54.77541 99.98370 35262 ft 476 kts 98°
2026-04-30 21:04 54.76104 100.09498 35260 ft 476 kts 98°
2026-04-30 21:04 54.73918 100.26274 35244 ft 476 kts 98°
2026-04-30 21:05 54.72447 100.37451 35246 ft 476 kts 98°
2026-04-30 21:05 54.70963 100.48637 35245 ft 477 kts 98°
2026-04-30 21:06 54.69471 100.59800 35248 ft 476 kts 98°
2026-04-30 21:06 54.67970 100.70948 35252 ft 476 kts 98°
2026-04-30 21:07 54.66457 100.82100 35267 ft 477 kts 98°
2026-04-30 21:07 54.64934 100.93250 35252 ft 478 kts 99°
2026-04-30 21:08 54.63396 101.04418 35252 ft 478 kts 99°
2026-04-30 21:08 54.61849 101.15561 35252 ft 478 kts 99°
2026-04-30 21:09 54.60289 101.26721 35260 ft 478 kts 99°
2026-04-30 21:09 54.58729 101.37801 35277 ft 478 kts 99°
2026-04-30 21:10 54.57139 101.49016 35262 ft 479 kts 99°
2026-04-30 21:10 54.55559 101.60075 35266 ft 479 kts 99°
2026-04-30 21:11 54.53957 101.71209 35266 ft 479 kts 99°
2026-04-30 21:11 54.52346 101.82325 35262 ft 479 kts 99°
2026-04-30 21:12 54.50724 101.93438 35266 ft 479 kts 100°
2026-04-30 21:12 54.49091 102.04552 35264 ft 479 kts 100°
2026-04-30 21:13 54.47447 102.15661 35263 ft 479 kts 100°
2026-04-30 21:13 54.45793 102.26759 35262 ft 480 kts 100°
2026-04-30 21:14 54.44126 102.37861 35265 ft 480 kts 100°
2026-04-30 21:14 54.42462 102.48873 35267 ft 480 kts 100°
2026-04-30 21:15 54.40774 102.59969 35263 ft 480 kts 100°
2026-04-30 21:15 54.39076 102.71054 35269 ft 480 kts 100°
2026-04-30 21:16 54.37371 102.82127 35266 ft 480 kts 100°
2026-04-30 21:16 54.35681 102.93198 35273 ft 480 kts 100°
2026-04-30 21:17 54.33991 103.04254 35270 ft 480 kts 100°
2026-04-30 21:17 54.31941 103.15153 35259 ft 486 kts 114°
2026-04-30 21:18 54.30101 103.20029 35262 ft 490 kts 128°
2026-04-30 21:18 54.27624 103.24040 35230 ft 492 kts 144°
2026-04-30 21:18 54.21551 103.29455 35250 ft 493 kts 157°
2026-04-30 21:19 54.15203 103.33915 35279 ft 493 kts 159°
2026-04-30 21:19 54.08819 103.38270 35253 ft 495 kts 159°
2026-04-30 21:20 54.02432 103.42716 35246 ft 496 kts 158°
2026-04-30 21:20 53.96098 103.47185 35240 ft 495 kts 158°
2026-04-30 21:21 53.89740 103.51677 35246 ft 495 kts 158°
2026-04-30 21:22 53.80204 103.58378 35247 ft 494 kts 158°
2026-04-30 21:22 53.70727 103.65002 34297 ft 487 kts 158°
2026-04-30 21:23 53.67561 103.67206 33187 ft 496 kts 158°
2026-04-30 21:23 53.64353 103.69435 32225 ft 499 kts 158°
2026-04-30 21:23 53.57892 103.73922 30258 ft 506 kts 158°
2026-04-30 21:24 53.54625 103.76183 29087 ft 509 kts 158°
2026-04-30 21:24 53.51345 103.78446 28150 ft 508 kts 158°
2026-04-30 21:24 53.48107 103.80679 27481 ft 500 kts 158°
2026-04-30 21:24 53.44904 103.82886 26741 ft 495 kts 158°
2026-04-30 21:25 53.38623 103.87297 25264 ft 484 kts 153°
2026-04-30 21:25 53.35657 103.89894 24590 ft 479 kts 152°
2026-04-30 21:25 53.32740 103.92524 23899 ft 474 kts 151°
2026-04-30 21:26 53.27049 103.97852 22419 ft 463 kts 150°
2026-04-30 21:26 53.24268 104.00478 21729 ft 456 kts 150°
2026-04-30 21:27 53.18818 104.05600 20399 ft 443 kts 150°
2026-04-30 21:27 53.16180 104.08064 19751 ft 438 kts 150°
2026-04-30 21:27 53.13504 104.10555 19091 ft 432 kts 150°
2026-04-30 21:28 53.08339 104.15314 17744 ft 422 kts 151°
2026-04-30 21:28 53.05786 104.17629 17127 ft 414 kts 151°
2026-04-30 21:28 53.00806 104.22133 15913 ft 401 kts 151°
2026-04-30 21:29 52.98380 104.24325 15320 ft 395 kts 151°
2026-04-30 21:29 52.91260 104.30745 13583 ft 381 kts 151°
2026-04-30 21:30 52.86708 104.34839 12452 ft 369 kts 151°
2026-04-30 21:31 52.80065 104.40793 10885 ft 355 kts 152°
2026-04-30 21:31 52.75894 104.44520 10508 ft 322 kts 152°
2026-04-30 21:32 52.72019 104.47457 10277 ft 293 kts 158°
2026-04-30 21:32 52.70149 104.48762 9932 ft 291 kts 158°
2026-04-30 21:32 52.68287 104.50057 9531 ft 289 kts 158°
2026-04-30 21:32 52.66442 104.51340 9191 ft 286 kts 158°
2026-04-30 21:33 52.64620 104.52609 8846 ft 283 kts 158°
2026-04-30 21:33 52.61020 104.55113 8260 ft 286 kts 158°
2026-04-30 21:33 52.59151 104.56411 7934 ft 294 kts 158°
2026-04-30 21:34 52.57294 104.57700 7688 ft 293 kts 158°
2026-04-30 21:34 52.53547 104.60300 7382 ft 291 kts 158°
2026-04-30 21:34 52.51684 104.61590 7224 ft 291 kts 158°
2026-04-30 21:35 52.49819 104.62881 7061 ft 290 kts 158°
2026-04-30 21:35 52.47964 104.64164 6894 ft 289 kts 158°
2026-04-30 21:35 52.46110 104.65445 6744 ft 289 kts 158°
2026-04-30 21:35 52.44260 104.66721 6589 ft 288 kts 158°
2026-04-30 21:36 52.42416 104.67992 6421 ft 288 kts 158°
2026-04-30 21:36 52.40578 104.69258 6256 ft 287 kts 158°
2026-04-30 21:37 52.35069 104.73046 5793 ft 286 kts 158°
2026-04-30 21:37 52.33234 104.74305 5638 ft 285 kts 158°
2026-04-30 21:37 52.31408 104.75559 5477 ft 285 kts 158°
2026-04-30 21:37 52.29574 104.76771 5327 ft 284 kts 163°
2026-04-30 21:38 52.27651 104.77233 5164 ft 278 kts 188°
2026-04-30 21:38 52.25859 104.76282 5023 ft 270 kts 216°
2026-04-30 21:38 52.24402 104.74391 4879 ft 267 kts 226°
2026-04-30 21:38 52.23059 104.72312 4713 ft 266 kts 227°
2026-04-30 21:39 52.21736 104.70206 4574 ft 265 kts 230°
2026-04-30 21:39 52.20672 104.67825 4348 ft 255 kts 249°
2026-04-30 21:39 52.20279 104.65140 4174 ft 236 kts 270°
2026-04-30 21:39 52.20422 104.62604 4031 ft 215 kts 288°
2026-04-30 21:40 52.20951 104.60428 3878 ft 199 kts 296°
2026-04-30 21:40 52.21535 104.58509 3718 ft 179 kts 299°
2026-04-30 21:40 52.22080 104.56830 3597 ft 156 kts 298°
2026-04-30 21:40 52.22500 104.55335 3582 ft 138 kts 295°
2026-04-30 21:41 52.22879 104.53892 3540 ft 140 kts 295°
2026-04-30 21:41 52.23266 104.52421 3333 ft 141 kts 295°
2026-04-30 21:41 52.23655 104.50949 3108 ft 141 kts 295°
2026-04-30 21:41 52.24040 104.49474 2918 ft 141 kts 294°
2026-04-30 21:42 52.24424 104.48010 2690 ft 140 kts 294°
2026-04-30 21:42 52.24815 104.46554 2468 ft 139 kts 294°
2026-04-30 21:42 52.25200 104.45100 2238 ft 139 kts 293°
2026-04-30 21:42 52.25590 104.43666 2025 ft 138 kts 293°
2026-04-30 21:43 52.25975 104.42227 1804 ft 138 kts 293°
2026-04-30 21:43 52.26230 104.41276 1687 ft 138 kts 293°
2026-04-30 21:43 52.26684 104.39574 1653 ft 96 kts 293°
2026-04-30 21:43 52.26881 104.38846 1653 ft 48 kts 294°
2026-04-30 21:44 52.26995 104.38415 1652 ft 32 kts 294°
2026-04-30 21:44 52.27081 104.38092 1655 ft 30 kts 293°
2026-04-30 21:44 52.27139 104.37869 1659 ft 17 kts 293°
2026-04-30 21:44 52.27178 104.37719 1661 ft 10 kts 293°
2026-04-30 21:45 52.27175 104.37614 1662 ft 10 kts 232°
2026-04-30 21:45 52.27136 104.37529 1664 ft 9 kts 233°
2026-04-30 21:45 52.27097 104.37440 1654 ft 10 kts 235°
2026-04-30 21:45 52.27071 104.37381 1659 ft 8 kts 234°
2026-04-30 21:46 52.27040 104.37311 1666 ft 8 kts 234°
2026-04-30 21:46 52.27005 104.37229 1654 ft 10 kts 234°
2026-04-30 21:46 52.26991 104.37126 1657 ft 10 kts 287°
2026-04-30 21:46 52.27012 104.37030 1662 ft 9 kts 290°
2026-04-30 21:47 52.27034 104.36931 1659 ft 9 kts 290°
2026-04-30 21:47 52.27056 104.36835 1667 ft 8 kts 290°
2026-04-30 21:47 52.27067 104.36785 1661 ft 1 kts 290°
2026-04-30 21:47 52.27068 104.36783 1662 ft 0 kts 290°
2026-04-30 21:49 52.27054 104.36844 1657 ft 4 kts 290°
2026-04-30 21:50 52.27070 104.36871 1658 ft 7 kts 15°
2026-04-30 21:50 52.27098 104.36886 1659 ft 7 kts 19°
2026-04-30 21:50 52.27076 104.36874 1661 ft 0 kts 16°
2026-04-30 21:51 52.27075 104.36874 1661 ft 0 kts 16°
2026-04-30 21:53 52.27099 104.36887 1665 ft 0 kts 199°
2026-04-30 21:57 52.27100 104.36887 1654 ft 0 kts 199°